Location: Goettingen
(51.5300°N, 9.9433°E)
Time: 00:17:17
(UTC+02:00)

N. Korean satellite - Pass Details

Date: 27 September 2021
Orbit: 450 x 495 km, 97.3° (Epoch: 21 October)

Event Time Altitude Azimuth Distance (km) Brightness Sun altitude
Rises 06:07:24 0° 21° (NNE) 2,530 10.7 -11.2°
Reaches altitude 10° 06:09:38 10° 33° (NNE) 1,656 9.9 -10.9°
Maximum altitude 06:12:49 30° 96° (E) 892 8.7 -10.4°
Drops below altitude 10° 06:16:00 10° 159° (SSE) 1,665 9.4 -9.9°
Sets 06:18:15 0° 170° (S) 2,548 10.2 -9.5°
